Regional Weather Roundup
Issued by NWS

Home | Current Version | Previous Version | Graphics & Text | Print | Product List | Glossary On
Versions: 1 2 3 4 5 6 7 8 9 10 11 12 13 14 15 16 17 18 19 20 21 22 23 24 25 26 27 28 29 30 31 32 33 34 35 36 37 38 39 40 41 42 43 44 45 46 47 48 49 50
389
ASUS43 KLSX 250107
RWRMO

WEATHER SUMMARY FOR MISSOURI
NATIONAL WEATHER SERVICE SPRINGFIELD MO
800 PM CDT SAT SEP 24 2016

NOTE: "FAIR" INDICATES FEW OR NO CLOUDS BELOW 12,000 FEET WITH NO
       SIGNIFICANT WEATHER AND/OR OBSTRUCTIONS TO VISIBILITY.
       CURRENT SKY AND/OR WEATHER CONDITIONS ARE NOT AVAILABLE FOR
       CHILLICOTHE AND FARMINGTON.

MOZ001>031-035>038-043-044-053-054-250200-
...NORTHERN AND WESTERN MISSOURI...

CITY           SKY/WX    TMP DP  RH WIND       PRES   REMARKS
KANSAS CTY INT CLOUDY    80  69  69 S6        29.96R
KANSAS C DTWN  CLOUDY    84  70  62 SE7       29.94R
LEE`S SUMMIT   CLEAR     81  70  69 SE8       29.97R
ST JOSEPH      TSTM      69  67  93 W3G18     30.02R VSB 3/4
CHILLICOTHE      N/A     77  71  82 CALM      29.98R
KIRKSVILLE     CLEAR     76  67  73 SE8       30.00F

$$
MOZ066>068-077>081-088>096-101>105-250200-
...SOUTHWEST MISSOURI...

CITY           SKY/WX    TMP DP  RH WIND       PRES   REMARKS
SPRINGFIELD    CLEAR     81  66  60 SE8       30.00R
JOPLIN         CLEAR     82  68  62 SE5       29.98R
BRANSON        PTCLDY    77  68  73 S6        30.02R

$$
MOZ032>034-039>042-045>050-055>058-069>072-250200-
...CENTRAL MISSOURI...

CITY           SKY/WX    TMP DP  RH WIND       PRES   REMARKS
COLUMBIA       CLEAR     79  70  74 SE6       30.01R
JEFFERSON CITY CLEAR     78  71  79 SE5       29.98S
ROLLA          CLEAR     75  68  78 E5        30.02R
SEDALIA        CLEAR     79  71  76 SE8G25    29.99R
WHITEMAN AFB   PTCLDY    79  73  81 SE5       29.97R
OSAGE BEACH    CLEAR     78  71  79 E3        30.01R

$$
MOZ051-052-059>065-250200-
...EAST CENTRAL MISSOURI...

CITY           SKY/WX    TMP DP  RH WIND       PRES   REMARKS
ST LOUIS INTL  CLEAR     85  63  47 S6        30.02R
SPIRIT OF STL  CLEAR     75  71  87 CALM      30.00S
ST CHARLES     CLEAR     77  70  79 CALM      30.00R

$$
MOZ072>076-082>087-097>100-106>115-250200-
...SOUTH CENTRAL AND SOUTHEAST MISSOURI...

CITY           SKY/WX    TMP DP  RH WIND       PRES   REMARKS
CAPE GIRARDEAU CLEAR     78  71  79 CALM      30.00F
FARMINGTON     CLEAR     74  69  85 CALM      30.04S
WEST PLAINS    CLEAR     76  67  73 CALM      30.05R

$$



USA.gov is the U.S. government's official web portal to all federal, state and local government web resources and services.